Artesia, NM

4:35 PM MST on February 09, 2016 (GMT -0700)
Artesia Municipal

Weather History for KATS - May, 2014

Change the Weather History Date:

Saturday, May 17, 2014

  Actual Average Record
Temperature  
Mean Temperature 72 °F -  
Max Temperature 86 °F 87 °F 98 °F (2004)
Min Temperature 59 °F 52 °F 43 °F (1980)
Cooling Degree Days 8    
Growing Degree Days 22 (Base 50)    
Moisture  
Dew Point 35 °F    
Average Humidity 28    
Maximum Humidity 52    
Minimum Humidity 13    
Precipitation  
Precipitation 0.00 in - - ()
Sea Level Pressure  
Sea Level Pressure 29.99 in    
Wind  
Wind Speed 10 mph (NE)    
Max Wind Speed 24 mph    
Max Gust Speed 30 mph    
Visibility 10 miles    
Events      
Averages and records for this station are not official NWS values.
T = Trace of Precipitation, MM = Missing Value Source: NWS Daily Summary

Daily Weather History Graph

Daily Weather History Graph

Search for Another Location

Airport or City:

Trip Planner

Search our weather history database for the weather conditions in past years. The results will help you decide how hot, cold, wet, or windy it might be!

Date:

Astronomy

May. 17, 2014 Rise Set
Actual Time 5:57 AM MDT 7:51 PM MDT
Civil Twilight 5:30 AM MDT 8:18 PM MDT
Nautical Twilight 4:57 AM MDT 8:52 PM MDT
Astronomical Twilight 4:21 AM MDT 9:27 PM MDT
Moon 10:55 PM MDT (5/17) 8:42 AM MDT (5/17)
Length of Visible Light 14h 48m
Length of Day
13h 54m
Waning Gibbous, 89% of the Moon is Illuminated
May 17
Waning Gibbous
May 21
Last Quarter
May 28
New
Jun 5
First Quarter
Jun 12
Full

Hourly Weather History & Observations

Time (MDT) Temp. Dew Point Humidity Pressure Visibility Wind Dir Wind Speed Gust Speed Precip Events Conditions
12:15 AM 68.0 °F 15.8 °F 13% 29.91 in 10.0 mi West 6.9 mph - N/A   Clear
12:35 AM 64.4 °F 14.0 °F 14% 29.91 in 10.0 mi Calm Calm - N/A   Clear
12:55 AM 64.4 °F 15.8 °F 15% 29.92 in 10.0 mi SSE 3.5 mph - N/A   Clear
1:15 AM 64.4 °F 15.8 °F 15% 29.92 in 10.0 mi Calm Calm - N/A   Clear
1:35 AM 64.4 °F 14.0 °F 14% 29.91 in 10.0 mi Calm Calm - N/A   Clear
1:55 AM 66.2 °F 14.0 °F 13% 29.91 in 10.0 mi Calm Calm - N/A   Clear
2:15 AM 66.2 °F 15.8 °F 14% 29.92 in 10.0 mi NNW 6.9 mph - N/A   Clear
2:35 AM 66.2 °F 15.8 °F 14% 29.93 in 10.0 mi NW 15.0 mph 20.7 mph N/A   Clear
2:55 AM 64.4 °F 19.4 °F 18% 29.94 in 9.0 mi North 16.1 mph - N/A   Clear
3:15 AM 64.4 °F 32.0 °F 30% 29.96 in 4.0 mi NNE 19.6 mph - N/A   Haze
3:35 AM 62.6 °F 33.8 °F 34% 30.00 in 7.0 mi North 17.3 mph 27.6 mph N/A   Clear
3:55 AM 60.8 °F 33.8 °F 36% 30.01 in 7.0 mi North 19.6 mph - N/A   Clear
4:15 AM 60.8 °F 33.8 °F 36% 30.02 in 9.0 mi NNW 17.3 mph - N/A   Clear
4:35 AM 59.0 °F 33.8 °F 39% 30.03 in 10.0 mi NNW 17.3 mph - N/A   Clear
4:55 AM 59.0 °F 33.8 °F 39% 30.04 in 10.0 mi NNW 15.0 mph 19.6 mph N/A   Clear
5:15 AM 59.0 °F 33.8 °F 39% 30.05 in 10.0 mi NW 16.1 mph 21.9 mph N/A   Clear
5:35 AM 59.0 °F 33.8 °F 39% 30.06 in 10.0 mi NNW 17.3 mph - N/A   Clear
5:55 AM 59.0 °F 35.6 °F 42% 30.07 in 10.0 mi NNW 17.3 mph - N/A   Clear
6:15 AM 59.0 °F 35.6 °F 42% 30.08 in 10.0 mi NNW 16.1 mph - N/A   Clear
6:35 AM 59.0 °F 35.6 °F 42% 30.08 in 10.0 mi NNW 17.3 mph - N/A   Clear
6:55 AM 59.0 °F 35.6 °F 42% 30.08 in 10.0 mi NNW 15.0 mph 20.7 mph N/A   Clear
7:15 AM 60.8 °F 35.6 °F 39% 30.08 in 10.0 mi NNW 21.9 mph 27.6 mph N/A   Clear
7:35 AM 62.6 °F 35.6 °F 37% 30.09 in 10.0 mi North 21.9 mph 27.6 mph N/A   Clear
7:55 AM 62.6 °F 39.2 °F 42% 30.09 in 10.0 mi North 24.2 mph 29.9 mph N/A   Clear
8:35 AM 62.6 °F 44.6 °F 52% 30.10 in 10.0 mi North 21.9 mph 26.5 mph N/A   Clear
8:55 AM 62.6 °F 42.8 °F 48% 30.10 in 10.0 mi North 19.6 mph - N/A   Clear
9:15 AM 64.4 °F 44.6 °F 49% 30.10 in 10.0 mi North 16.1 mph 24.2 mph N/A   Clear
9:35 AM 64.4 °F 44.6 °F 49% 30.10 in 10.0 mi North 17.3 mph 21.9 mph N/A   Clear
9:55 AM 66.2 °F 44.6 °F 46% 30.10 in 10.0 mi NNE 15.0 mph 23.0 mph N/A   Clear
10:15 AM 66.2 °F 44.6 °F 46% 30.10 in 10.0 mi North 15.0 mph 21.9 mph N/A   Clear
10:35 AM 68.0 °F 44.6 °F 43% 30.10 in 10.0 mi North 13.8 mph 19.6 mph N/A   Clear
10:55 AM 68.0 °F 44.6 °F 43% 30.09 in 10.0 mi North 10.4 mph 17.3 mph N/A   Clear
11:15 AM 68.0 °F 44.6 °F 43% 30.09 in 10.0 mi North 11.5 mph - N/A   Clear
11:35 AM 69.8 °F 44.6 °F 40% 30.08 in 10.0 mi North 13.8 mph - N/A   Clear
11:55 AM 71.6 °F 42.8 °F 35% 30.07 in 10.0 mi North 11.5 mph - N/A   Clear
12:15 PM 71.6 °F 42.8 °F 35% 30.06 in 10.0 mi North 12.7 mph 16.1 mph N/A   Clear
12:35 PM 73.4 °F 42.8 °F 33% 30.05 in 10.0 mi NNE 8.1 mph - N/A   Clear
12:55 PM 73.4 °F 41.0 °F 31% 30.04 in 10.0 mi ENE 8.1 mph - N/A   Clear
1:15 PM 75.2 °F 41.0 °F 29% 30.03 in 10.0 mi NNE 6.9 mph - N/A   Clear
1:35 PM 77.0 °F 41.0 °F 28% 30.02 in 10.0 mi NNW 3.5 mph - N/A   Clear
1:55 PM 77.0 °F 41.0 °F 28% 30.01 in 10.0 mi NNW 5.8 mph - N/A   Clear
2:15 PM 78.8 °F 41.0 °F 26% 30.00 in 10.0 mi East 3.5 mph - N/A   Clear
2:35 PM 78.8 °F 41.0 °F 26% 29.99 in 10.0 mi East 4.6 mph - N/A   Clear
2:55 PM 78.8 °F 41.0 °F 26% 29.99 in 10.0 mi WNW 3.5 mph - N/A   Clear
3:15 PM 82.4 °F 41.0 °F 23% 29.97 in 10.0 mi ENE 5.8 mph - N/A   Clear
3:35 PM 82.4 °F 41.0 °F 23% 29.96 in 10.0 mi SSE 4.6 mph - N/A   Clear
3:55 PM 82.4 °F 39.2 °F 21% 29.95 in 10.0 mi Calm Calm - N/A   Clear
4:15 PM 84.2 °F 39.2 °F 20% 29.94 in 2.0 mi SE 3.5 mph - N/A   Haze
4:35 PM 84.2 °F 39.2 °F 20% 29.93 in 10.0 mi ESE 6.9 mph - N/A   Clear
4:55 PM 84.2 °F 37.4 °F 19% 29.92 in 10.0 mi SE 12.7 mph - N/A   Clear
5:15 PM 86.0 °F 37.4 °F 18% 29.91 in 10.0 mi SE 9.2 mph 16.1 mph N/A   Clear
5:35 PM 86.0 °F 37.4 °F 18% 29.90 in 10.0 mi SE 11.5 mph - N/A   Clear
5:55 PM 86.0 °F 37.4 °F 18% 29.90 in 10.0 mi SSE 12.7 mph 17.3 mph N/A   Clear
6:15 PM 86.0 °F 33.8 °F 15% 29.89 in 10.0 mi SE 15.0 mph - N/A   Clear
6:35 PM 86.0 °F 33.8 °F 15% 29.89 in 10.0 mi SE 13.8 mph - N/A   Clear
6:55 PM 86.0 °F 32.0 °F 14% 29.88 in 10.0 mi SSE 15.0 mph - N/A   Clear
7:15 PM 84.2 °F 32.0 °F 15% 29.88 in 10.0 mi SSE 16.1 mph - N/A   Clear
7:35 PM 82.4 °F 33.8 °F 17% 29.88 in 10.0 mi SSE 12.7 mph - N/A   Clear
7:55 PM 80.6 °F 33.8 °F 18% 29.89 in 10.0 mi SSE 12.7 mph - N/A   Clear
8:15 PM 78.8 °F 33.8 °F 20% 29.90 in 10.0 mi South 12.7 mph - N/A   Clear
8:35 PM 77.0 °F 32.0 °F 19% 29.90 in 10.0 mi South 10.4 mph - N/A   Clear
8:55 PM 77.0 °F 32.0 °F 19% 29.90 in 10.0 mi South 9.2 mph - N/A   Clear
9:15 PM 75.2 °F 32.0 °F 21% 29.91 in 10.0 mi South 9.2 mph - N/A   Clear
9:35 PM 73.4 °F 32.0 °F 22% 29.92 in 10.0 mi South 8.1 mph - N/A   Clear
10:15 PM 71.6 °F 32.0 °F 23% 29.93 in 10.0 mi South 10.4 mph - N/A   Clear
10:35 PM 68.0 °F 32.0 °F 26% 29.94 in 10.0 mi SSE 9.2 mph - N/A   Clear
10:55 PM 68.0 °F 32.0 °F 26% 29.95 in 10.0 mi South 10.4 mph - N/A   Clear
11:15 PM 68.0 °F 32.0 °F 26% 29.95 in 10.0 mi SSE 11.5 mph - N/A   Clear
11:35 PM 68.0 °F 32.0 °F 26% 29.95 in 10.0 mi SSE 12.7 mph - N/A   Clear
11:55 PM 68.0 °F 32.0 °F 26% 29.95 in 10.0 mi SSE 11.5 mph - N/A   Clear